Weather History for Stanton, MN

Change the Weather History Date:

Tuesday, February 19, 2013

  Actual Average (KLVN) Record (KLVN)
Temperature  
Mean Temperature 4 °F -  
Max Temperature 8 °F 29 °F 55 °F (1981)
Min Temperature 0 °F 13 °F -18 °F (1959)
Degree Days  
Heating Degree Days 61    
Moisture  
Dew Point -4 °F    
Average Humidity 69    
Maximum Humidity 79    
Minimum Humidity 61    
Precipitation  
Precipitation 0.00 in - - ()
Sea Level Pressure  
Sea Level Pressure 30.06 in    
Wind  
Wind Speed 18 mph (WNW)    
Max Wind Speed 24 mph    
Max Gust Speed 31 mph    
Visibility 7 miles    
Events Snow    
Averages and records for this station are not official NWS values.
T = Trace of Precipitation, MM = Missing Value Source: NWS Daily Summary

Daily Weather History Graph

Daily Weather History Graph

Search for Another Location

Airport:

Trip Planner

Search our weather history database for the weather conditions in past years. The results will help you decide how hot, cold, wet, or windy it might be!

Date:

Astronomy

Feb. 19, 2013 Rise Set
Actual Time 7:05 AM CST 5:46 PM CST
Civil Twilight 6:35 AM CST 6:16 PM CST
Nautical Twilight 6:01 AM CST 6:50 PM CST
Astronomical Twilight 5:28 AM CST 7:24 PM CST
Moon 12:11 PM CST 2:45 AM CST
Length of Visible Light 11h 40m
Length of Day
10h 41m
Waxing Gibbous, 67% of the Moon is Illuminated
Feb 19
Waxing Gibbous
Feb 25
Full
Mar 4
Last Quarter
Mar 11
New
Mar 19
First Quarter

Hourly Weather History & Observations

Time (CST) Temp. Windchill Dew Point Humidity Pressure Visibility Wind Dir Wind Speed Gust Speed Precip Events Conditions
12:12 AM 8.1 °F -10.2 °F 2.3 °F 77% 29.79 in 3.0 mi West 17.3 mph - N/A Snow Light Snow
12:33 AM 7.7 °F -10.1 °F 2.1 °F 78% 29.80 in 4.0 mi West 16.1 mph - N/A Snow Light Snow
12:52 AM 7.7 °F -10.7 °F 2.1 °F 78% 29.80 in 5.0 mi WNW 17.3 mph - N/A Snow Light Snow
1:13 AM 7.7 °F -10.7 °F 1.9 °F 77% 29.81 in 5.0 mi WNW 17.3 mph - N/A Snow Light Snow
1:33 AM 7.5 °F -9.7 °F 1.8 °F 77% 29.81 in 5.0 mi WNW 15.0 mph - N/A Snow Light Snow
1:52 AM 7.7 °F -11.7 °F 2.5 °F 79% 29.82 in 2.5 mi WNW 19.6 mph 23.0 mph N/A Snow Light Snow
2:13 AM 7.7 °F -10.7 °F 2.3 °F 79% 29.83 in 3.0 mi WNW 17.3 mph - N/A Snow Light Snow
2:33 AM 7.5 °F -9.7 °F 2.1 °F 79% 29.83 in 4.0 mi West 15.0 mph - N/A Snow Light Snow
2:52 AM 6.8 °F -11.8 °F 1.4 °F 79% 29.84 in 2.5 mi WNW 17.3 mph - N/A Snow Light Snow
3:12 AM 6.6 °F -12.6 °F 1.2 °F 79% 29.85 in 2.5 mi WNW 18.4 mph 25.3 mph N/A Snow Light Snow
3:33 AM 6.6 °F -12.6 °F 0.5 °F 76% 29.86 in 4.0 mi WNW 18.4 mph 24.2 mph N/A   Haze
3:52 AM 6.3 °F -14.5 °F -0.2 °F 75% 29.86 in 4.0 mi WNW 21.9 mph 27.6 mph N/A   Haze
4:13 AM 5.9 °F -13.5 °F -0.6 °F 75% 29.87 in 4.0 mi WNW 18.4 mph 24.2 mph N/A   Haze
4:33 AM 5.9 °F -14.1 °F -0.9 °F 73% 29.88 in 3.0 mi WNW 19.6 mph - N/A   Haze
4:52 AM 5.9 °F -13.5 °F -0.9 °F 73% 29.88 in 5.0 mi NW 18.4 mph 27.6 mph N/A   Haze
5:13 AM 5.9 °F -14.1 °F -1.1 °F 73% 29.89 in 7.0 mi NW 19.6 mph 25.3 mph N/A   Overcast
5:32 AM 5.9 °F -14.5 °F -1.1 °F 73% 29.89 in 5.0 mi NW 20.7 mph 24.2 mph N/A   Haze
5:52 AM 6.1 °F -14.3 °F -1.1 °F 72% 29.91 in 4.0 mi NW 20.7 mph 26.5 mph N/A   Haze
6:13 AM 5.9 °F -15.0 °F -1.1 °F 73% 29.92 in 3.0 mi NW 21.9 mph 31.1 mph N/A   Haze
6:32 AM 5.9 °F -15.5 °F -1.5 °F 72% 29.93 in 5.0 mi NW 23.0 mph - N/A   Haze
6:52 AM 5.7 °F -13.8 °F -1.8 °F 71% 29.94 in 5.0 mi NW 18.4 mph 25.3 mph N/A   Haze
7:13 AM 5.5 °F -15.0 °F -2.2 °F 70% 29.95 in 5.0 mi WNW 20.7 mph 25.3 mph N/A   Haze
7:32 AM 5.4 °F -13.7 °F -2.6 °F 70% 29.97 in 4.0 mi NW 17.3 mph 27.6 mph N/A   Haze
7:52 AM 3.2 °F -17.1 °F -3.3 °F 74% 29.98 in 5.0 mi WNW 18.4 mph - N/A   Haze
8:13 AM 2.7 °F -17.8 °F -4.0 °F 74% 30.00 in 5.0 mi WNW 18.4 mph - N/A   Haze
8:32 AM 2.7 °F -18.3 °F -4.0 °F 74% 30.00 in 4.0 mi WNW 19.6 mph - N/A   Haze
8:52 AM 2.7 °F -18.3 °F -4.2 °F 73% 30.02 in 3.0 mi WNW 19.6 mph - N/A   Haze
9:13 AM 2.8 °F -17.5 °F -4.7 °F 71% 30.03 in 7.0 mi WNW 18.4 mph 24.2 mph N/A   Overcast
9:32 AM 3.2 °F -18.1 °F -4.9 °F 69% 30.03 in 7.0 mi WNW 20.7 mph - N/A   Mostly Cloudy
9:52 AM 3.9 °F -16.6 °F -4.5 °F 68% 30.04 in 7.0 mi WNW 19.6 mph 24.2 mph N/A   Clear
10:13 AM 4.1 °F -16.9 °F -4.4 °F 68% 30.04 in 7.0 mi WNW 20.7 mph - N/A   Clear
10:32 AM 4.6 °F -16.2 °F -4.2 °F 67% 30.05 in 7.0 mi WNW 20.7 mph - N/A   Clear
10:52 AM 4.5 °F -17.4 °F -4.7 °F 66% 30.06 in 10.0 mi WNW 23.0 mph - N/A   Clear
11:13 AM 4.3 °F -16.2 °F -5.1 °F 65% 30.07 in 10.0 mi West 19.6 mph - N/A   Clear
11:32 AM 4.6 °F -15.7 °F -5.1 °F 64% 30.08 in 10.0 mi West 19.6 mph 23.0 mph N/A   Clear
11:52 AM 4.8 °F -16.0 °F -5.1 °F 64% 30.08 in 10.0 mi WNW 20.7 mph 26.5 mph N/A   Clear
12:13 PM 5.0 °F -15.7 °F -4.9 °F 64% 30.10 in 7.0 mi West 20.7 mph - N/A   Clear
12:32 PM 5.7 °F -15.3 °F -4.2 °F 64% 30.10 in 10.0 mi WNW 21.9 mph 26.5 mph N/A   Clear
12:53 PM 5.9 °F -15.0 °F -4.2 °F 63% 30.10 in 10.0 mi West 21.9 mph 25.3 mph N/A   Clear
1:12 PM 5.9 °F -15.5 °F -4.5 °F 62% 30.10 in 10.0 mi WNW 23.0 mph 27.6 mph N/A   Clear
1:33 PM 6.1 °F -13.8 °F -4.2 °F 63% 30.10 in 10.0 mi WNW 19.6 mph - N/A   Clear
1:52 PM 5.5 °F -16.4 °F -5.1 °F 62% 30.11 in 10.0 mi West 24.2 mph 27.6 mph N/A   Clear
2:12 PM 5.9 °F -14.1 °F -4.5 °F 62% 30.12 in 10.0 mi WNW 19.6 mph 26.5 mph N/A   Clear
2:33 PM 5.9 °F -15.0 °F -4.9 °F 61% 30.12 in 10.0 mi WNW 21.9 mph 26.5 mph N/A   Clear
2:52 PM 6.1 °F -14.8 °F -4.9 °F 61% 30.13 in 10.0 mi WNW 21.9 mph 27.6 mph N/A   Clear
3:12 PM 6.3 °F -14.5 °F -4.5 °F 61% 30.14 in 10.0 mi WNW 21.9 mph 27.6 mph N/A   Clear
3:33 PM 5.9 °F -15.0 °F -5.1 °F 61% 30.15 in 10.0 mi WNW 21.9 mph 26.5 mph N/A   Clear
3:53 PM 5.9 °F -14.5 °F -5.1 °F 61% 30.16 in 10.0 mi WNW 20.7 mph 26.5 mph N/A   Clear
4:12 PM 5.9 °F -13.5 °F -5.1 °F 61% 30.17 in 10.0 mi WNW 18.4 mph - N/A   Clear
4:33 PM 5.7 °F -13.8 °F -5.3 °F 61% 30.18 in 10.0 mi WNW 18.4 mph - N/A   Clear
4:53 PM 5.4 °F -13.7 °F -5.6 °F 61% 30.18 in 10.0 mi WNW 17.3 mph - N/A   Clear
5:12 PM 5.0 °F -13.6 °F -6.0 °F 61% 30.18 in 10.0 mi WNW 16.1 mph - N/A   Clear
5:33 PM 4.1 °F -13.4 °F -6.2 °F 63% 30.19 in 10.0 mi WNW 13.8 mph - N/A   Clear
6:33 PM 3.2 °F -13.1 °F -6.9 °F 63% 30.22 in 10.0 mi West 11.5 mph - N/A   Clear
6:52 PM 2.8 °F -12.7 °F -6.9 °F 64% 30.23 in 10.0 mi West 10.4 mph - N/A   Clear
7:13 PM 2.7 °F -12.0 °F -7.1 °F 64% 30.24 in 10.0 mi West 9.2 mph - N/A   Clear
7:53 PM 1.9 °F -13.8 °F -7.6 °F 64% 30.26 in 10.0 mi WNW 10.4 mph - N/A   Clear
8:13 PM 1.9 °F -13.8 °F -7.6 °F 64% 30.26 in 10.0 mi WNW 10.4 mph - N/A   Clear
8:32 PM 1.4 °F -14.5 °F -7.6 °F 66% 30.27 in 10.0 mi WNW 10.4 mph - N/A   Clear
8:53 PM 1.2 °F -13.7 °F -7.8 °F 66% 30.27 in 10.0 mi WNW 9.2 mph - N/A   Clear
9:12 PM 0.9 °F -14.2 °F -7.8 °F 67% 30.27 in 10.0 mi WNW 9.2 mph - N/A   Clear
9:33 PM 0.9 °F -16.0 °F -7.6 °F 68% 30.29 in 10.0 mi WNW 11.5 mph - N/A   Clear
9:52 PM 0.9 °F -13.1 °F -8.0 °F 66% 30.29 in 10.0 mi WNW 8.1 mph - N/A   Clear
10:13 PM 0.3 °F -12.6 °F -8.1 °F 68% 30.30 in 10.0 mi West 6.9 mph - N/A   Clear
10:33 PM -0.0 °F -13.0 °F -8.5 °F 68% 30.30 in 10.0 mi West 6.9 mph - N/A   Clear
10:52 PM -0.0 °F -15.3 °F -8.5 °F 68% 30.31 in 10.0 mi West 9.2 mph - N/A   Clear
11:13 PM -0.4 °F -15.7 °F -8.7 °F 68% 30.32 in 10.0 mi West 9.2 mph - N/A   Clear
11:33 PM -0.6 °F -13.6 °F -8.9 °F 68% 30.32 in 10.0 mi West 6.9 mph - N/A   Clear